NOAA 16 DEB

Satellite information

Favourite Embed

Satellite Type and Status

DEBRISIN ORBIT

Key statistics

Satellite NOAA 16 DEB at a glance.

Uptime

9217

Days in orbit

Revolutions

≈ 14.1

Per day

Orbit

SSO

Sun Synchronous Orbit

Inclination

98.9

Latest

Satellite identification and parameters

Extended collection of information and parameters for NOAA 16 DEB.

Object identification

Identified? True

Debris? True

Object name: NOAA 16 DEB

International designator: 2000-055TR

Object number (NORAD): 42421

Object ID (CCSDS): 42421

Country: UNITED STATES OF AMERICA (US)

Current information (Y/N): Y

RCS size: SMALL

Orbital parameters

Period: 102.306 minutes

Inclination: 98.8852 deg

SMA: 7245.928 km

Apoapsis: 926.703 km

Periapsis: 808.883 km

RAAN: 315.1604 deg

Eccentricy: 0.00813007

Argument of periapsis: 279.4203 deg

Mean anomaly: 79.7782 deg

Mean motion: 14.07543306 rev/day

Mean motion (dot): 0.000067 rev/day2

B* drag term: 0.0038780925 1/REarth

Two-line elements (TLE)

Creation date: Dec. 6, 2025, 6 a.m.

Reference frame: TEME

Reference center: EARTH

Epoch: Dec. 5, 2025, 4:11 p.m. UTC

TLE line 0: 0 NOAA 16 DEB

TLE line 1: 1 42421U 00055TR 25339.67465691 .00006700 00000-0 38781-2 0 9991

TLE line 2: 2 42421 98.8852 315.1604 0081301 279.4203 79.7782 14.07543306463124

Live tracking on map

Real-time ground track for satellite NOAA 16 DEB.

In-orbit conjunctions

A list of the most updated potential collisions computed for object NOAA 16 DEB.

Target Orbit TCA Probability of collision Miss distance Type
SL-8 R/B LEO 2024-11-13 15:34:33 0.0001934207 244.0 (m) ROCKET BODY

Associated space launch

The NOAA K, L and M POES satellites begin the fifth generation of improved environmental monitoring in support of NOAA missions. The instrument payload has significant improvements and additions/deletions. The instrument changes have effected the spacecraft subsystems and data formats.

NOAA 16 DEB was lifted into orbit during the mission ‘Titan II SLV | NOAA 16’, on board a Titan II SLV space rocket.

The launch took place on Sept. 21, 2000, 10:22 a.m. from Space Launch Complex 4W.

For more information about the launch, click the button.

Launch to space Titan II SLV | NOAA 16
Titan II SLV | NOAA 16

Agency: N/A

Status: Launch Successful

Launch date: Sept. 21, 2000, 10:22 a.m. UTC

Rocket: Titan II SLV

Launch pad: Space Launch Complex 4W

Location: Vandenberg SFB, CA, USA

...

Latest news about this satellite

There are no fresh news available about this satellite. Check back as we update our databases every day.


Newsletter sign-up

Weekly statistics, charts and insights to help you stay on top of the space industry.